Location: Marsån
(66.4167°N, 22.2833°E)
Time: 10:12:57
(UTC+00:00)

Helios 1A - Pass Details

Date: 24 February 2024
Orbit: 570 x 580 km, 98.3° (Epoch: 30 March)

Event Time Altitude Azimuth Distance (km) Brightness Sun altitude
Rises 16:19:23 0° 21° (NNE) 2,816 6.1 -6.2°
Reaches altitude 10° 16:21:44 10° 32° (NNE) 1,914 5.2 -6.5°
Maximum altitude 16:25:29 32° 96° (E) 1,019 3.7 -6.8°
Drops below altitude 10° 16:29:13 10° 160° (SSE) 1,908 5.5 -7.2°
Sets 16:31:33 0° 171° (S) 2,805 6.4 -7.4°
